| time (UTC) | temp F | wind direction | speed MPH | gust MPH | rain 1hr in | rain 24hr in | rain mn in | humidity % | barometer mb |
| 20260508161003 | 60 | 317 | 12.0 | 17.0 | 0.00 | 0.00 | 0.00 | 50 | 1010.1 |
| 20260508160505 | 60 | 309 | 11.0 | 18.0 | 0.00 | 0.00 | 0.00 | 50 | 1010.1 |
| 20260508160004 | 60 | 305 | 15.0 | 18.0 | 0.00 | 0.00 | 0.00 | 50 | 1010.1 |
| 20260508155504 | 60 | 310 | 8.0 | 20.0 | 0.00 | 0.00 | 0.00 | 50 | 1010.1 |
| 20260508155004 | 60 | 309 | 13.0 | 20.0 | 0.00 | 0.00 | 0.00 | 50 | 1010.1 |
| 20260508154504 | 60 | 308 | 15.0 | 17.0 | 0.00 | 0.00 | 0.00 | 50 | 1010.1 |
| 20260508154004 | 60 | 320 | 14.0 | 30.0 | 0.00 | 0.00 | 0.00 | 50 | 1010.1 |
| 20260508153504 | 60 | 320 | 17.0 | 30.0 | 0.00 | 0.00 | 0.00 | 50 | 1010.1 |
| 20260508153004 | 60 | 321 | 19.0 | 30.0 | 0.00 | 0.00 | 0.00 | 50 | 1009.1 |
| 20260508152004 | 61 | 316 | 19.0 | 27.0 | 0.00 | 0.00 | 0.00 | 50 | 1009.1 |
| 20260508151504 | 61 | 307 | 17.0 | 23.0 | 0.00 | 0.00 | 0.00 | 50 | 1009.1 |
| 20260508151003 | 61 | 310 | 16.0 | 23.0 | 0.00 | 0.00 | 0.00 | 50 | 1009.1 |
| 20260508150503 | 61 | 315 | 16.0 | 26.0 | 0.00 | 0.00 | 0.00 | 50 | 1009.1 |
| 20260508145504 | 61 | 319 | 10.0 | 23.0 | 0.00 | 0.00 | 0.00 | 50 | 1009.1 |
| 20260508145004 | 61 | 312 | 10.0 | 25.0 | 0.00 | 0.00 | 0.00 | 50 | 1009.1 |
| 20260508144005 | 61 | 328 | 11.0 | 20.0 | 0.00 | 0.00 | 0.00 | 50 | 1009.1 |
| 20260508143004 | 62 | 330 | 11.0 | 18.0 | 0.00 | 0.00 | 0.00 | 50 | 1010.1 |
| 20260508142504 | 62 | 332 | 10.0 | 33.0 | 0.00 | 0.00 | 0.00 | 50 | 1010.1 |
| 20260508142004 | 62 | 334 | 17.0 | 33.0 | 0.00 | 0.00 | 0.00 | 50 | 1010.1 |
| 20260508141003 | 62 | 336 | 19.0 | 31.0 | 0.00 | 0.00 | 0.00 | 50 | 1010.1 |
| 20260508140005 | 62 | 333 | 14.0 | 27.0 | 0.00 | 0.00 | 0.00 | 50 | 1009.1 |
| 20260508135503 | 62 | 336 | 11.0 | 27.0 | 0.00 | 0.00 | 0.00 | 50 | 1009.1 |
| 20260508135004 | 63 | 339 | 18.0 | 31.0 | 0.00 | 0.00 | 0.00 | 50 | 1009.1 |
| 20260508134505 | 63 | 340 | 12.0 | 31.0 | 0.00 | 0.00 | 0.00 | 50 | 1009.1 |
| 20260508134004 | 63 | 340 | 10.0 | 26.0 | 0.00 | 0.00 | 0.00 | 50 | 1009.1 |
| 20260508133504 | 63 | 337 | 16.0 | 27.0 | 0.00 | 0.00 | 0.00 | 50 | 1009.1 |
| 20260508133004 | 63 | 335 | 14.0 | 27.0 | 0.00 | 0.00 | 0.00 | 50 | 1009.1 |
| 20260508132504 | 63 | 335 | 14.0 | 27.0 | 0.00 | 0.00 | 0.00 | 50 | 1009.1 |
| 20260508132004 | 63 | 332 | 15.0 | 20.0 | 0.00 | 0.00 | 0.00 | 50 | 1009.1 |
| 20260508131504 | 64 | 332 | 12.0 | 20.0 | 0.00 | 0.00 | 0.00 | 50 | 1008.1 |
| 20260508131004 | 64 | 332 | 13.0 | 20.0 | 0.00 | 0.00 | 0.00 | 50 | 1008.1 |
| 20260508130504 | 64 | 332 | 13.0 | 28.0 | 0.00 | 0.00 | 0.00 | 50 | 1008.1 |
| 20260508130004 | 64 | 333 | 14.0 | 28.0 | 0.00 | 0.00 | 0.00 | 50 | 1007.1 |
| 20260508125504 | 64 | 329 | 13.0 | 28.0 | 0.00 | 0.00 | 0.00 | 50 | 1007.1 |
| 20260508125004 | 64 | 321 | 19.0 | 27.0 | 0.00 | 0.00 | 0.00 | 50 | 1007.1 |
| 20260508124504 | 64 | 316 | 16.0 | 32.0 | 0.00 | 0.00 | 0.00 | 50 | 1008.1 |
| 20260508124004 | 65 | 317 | 17.0 | 35.0 | 0.00 | 0.00 | 0.00 | 50 | 1008.1 |
| 20260508123504 | 65 | 324 | 26.0 | 35.0 | 0.00 | 0.00 | 0.00 | 50 | 1008.1 |
| 20260508123004 | 65 | 327 | 21.0 | 30.0 | 0.00 | 0.00 | 0.00 | 50 | 1008.1 |
| 20260508122004 | 65 | 324 | 15.0 | 29.0 | 0.00 | 0.00 | 0.00 | 50 | 1008.1 |
| 20260508121504 | 65 | 323 | 19.0 | 29.0 | 0.00 | 0.00 | 0.00 | 50 | 1008.1 |
| 20260508120504 | 65 | 316 | 20.0 | 32.0 | 0.00 | 0.00 | 0.00 | 50 | 1008.1 |
| 20260508120004 | 65 | 321 | 21.0 | 26.0 | 0.00 | 0.00 | 0.00 | 50 | 1007.1 |
| 20260508115503 | 65 | 325 | 13.0 | 24.0 | 0.00 | 0.00 | 0.00 | 50 | 1007.1 |
| 20260508115004 | 65 | 321 | 15.0 | 30.0 | 0.00 | 0.00 | 0.00 | 50 | 1007.1 |
| 20260508114504 | 65 | 322 | 19.0 | 30.0 | 0.00 | 0.00 | 0.00 | 50 | 1007.1 |
| 20260508114004 | 65 | 326 | 21.0 | 30.0 | 0.00 | 0.00 | 0.00 | 50 | 1007.1 |
| 20260508113503 | 65 | 324 | 21.0 | 30.0 | 0.00 | 0.00 | 0.00 | 50 | 1007.1 |
| 20260508113004 | 66 | 326 | 20.0 | 26.0 | 0.00 | 0.00 | 0.00 | 50 | 1006.1 |
| 20260508112503 | 66 | 328 | 18.0 | 34.0 | 0.00 | 0.00 | 0.00 | 50 | 1006.1 |
| 20260508111504 | 66 | 325 | 19.0 | 34.0 | 0.00 | 0.00 | 0.00 | 50 | 1006.1 |
| 20260508111003 | 66 | 329 | 21.0 | 32.0 | 0.00 | 0.00 | 0.00 | 50 | 1006.1 |
| 20260508110505 | 66 | 329 | 16.0 | 34.0 | 0.00 | 0.00 | 0.00 | 50 | 1006.1 |
| 20260508105503 | 66 | 328 | 21.0 | 31.0 | 0.00 | 0.00 | 0.00 | 50 | 1006.1 |
| 20260508105004 | 67 | 324 | 22.0 | 31.0 | 0.00 | 0.00 | 0.00 | 50 | 1006.1 |
| 20260508104503 | 67 | 326 | 17.0 | 23.0 | 0.00 | 0.00 | 0.00 | 50 | 1005.1 |
| 20260508103004 | 68 | 327 | 16.0 | 30.0 | 0.00 | 0.00 | 0.00 | 50 | 1004.1 |
| 20260508102504 | 68 | 321 | 17.0 | 30.0 | 0.00 | 0.00 | 0.00 | 50 | 1004.1 |
| 20260508102004 | 68 | 325 | 21.0 | 30.0 | 0.00 | 0.00 | 0.00 | 50 | 1004.1 |
| 20260508101005 | 69 | 322 | 15.0 | 23.0 | 0.00 | 0.00 | 0.00 | 50 | 1004.1 |
| 20260508100504 | 69 | 321 | 14.0 | 23.0 | 0.00 | 0.00 | 0.00 | 50 | 1004.1 |
| 20260508100004 | 70 | 320 | 13.0 | 23.0 | 0.00 | 0.00 | 0.00 | 50 | 1004.1 |
| 20260508095504 | 70 | 320 | 17.0 | 22.0 | 0.00 | 0.00 | 0.00 | 50 | 1004.1 |
| 20260508095004 | 70 | 323 | 14.0 | 25.0 | 0.00 | 0.00 | 0.00 | 50 | 1004.1 |
| 20260508093004 | 72 | 322 | 16.0 | 29.0 | 0.00 | 0.00 | 0.00 | 50 | 1003.1 |
| 20260508092504 | 73 | 314 | 13.0 | 22.0 | 0.00 | 0.00 | 0.00 | 50 | 1003.1 |
| 20260508091504 | 74 | 314 | 13.0 | 16.0 | 0.00 | 0.00 | 0.00 | 50 | 1002.1 |
| 20260508091004 | 74 | 310 | 9.0 | 17.0 | 0.00 | 0.00 | 0.00 | 50 | 1002.1 |
| 20260508090504 | 74 | 311 | 14.0 | 17.0 | 0.00 | 0.00 | 0.00 | 50 | 1002.1 |
| 20260508090005 | 74 | 304 | 9.0 | 15.0 | 0.00 | 0.00 | 0.00 | 50 | 1002.1 |
| 20260508085003 | 74 | 304 | 6.0 | 14.0 | 0.00 | 0.00 | 0.00 | 50 | 1002.1 |
| 20260508084004 | 74 | 311 | 2.0 | 8.0 | 0.00 | 0.00 | 0.00 | 50 | 1002.1 |
| 20260508083504 | 74 | 317 | 2.0 | 5.0 | 0.00 | 0.00 | 0.00 | 50 | 1002.1 |
| 20260508083005 | 74 | 320 | 3.0 | 4.0 | 0.00 | 0.00 | 0.00 | 50 | 1002.1 |
| 20260508082503 | 74 | 327 | 2.0 | 4.0 | 0.00 | 0.00 | 0.00 | 50 | 1002.1 |
| 20260508082003 | 73 | 192 | 1.0 | 4.0 | 0.00 | 0.00 | 0.00 | 50 | 1002.1 |
| 20260508081003 | 73 | 172 | 2.0 | 4.0 | 0.00 | 0.00 | 0.00 | 50 | 1002.1 |
| 20260508080504 | 73 | 171 | 2.0 | 4.0 | 0.00 | 0.00 | 0.00 | 50 | 1002.1 |
| 20260508080004 | 73 | 157 | 2.0 | 5.0 | 0.00 | 0.00 | 0.00 | 50 | 1002.1 |
| 20260508075504 | 73 | 170 | 3.0 | 6.0 | 0.00 | 0.00 | 0.00 | 50 | 1002.1 |
| 20260508074504 | 74 | 184 | 5.0 | 6.0 | 0.00 | 0.00 | 0.00 | 50 | 1002.1 |
| 20260508074004 | 74 | 176 | 5.0 | 6.0 | 0.00 | 0.00 | 0.00 | 50 | 1002.1 |
| 20260508073504 | 74 | 182 | 5.0 | 6.0 | 0.00 | 0.00 | 0.00 | 50 | 1002.1 |
| 20260508072004 | 74 | 175 | 3.0 | 5.0 | 0.00 | 0.00 | 0.00 | 50 | 1002.1 |
| 20260508071504 | 74 | 174 | 1.0 | 4.0 | 0.00 | 0.00 | 0.00 | 50 | 1002.1 |
| 20260508071004 | 75 | 179 | 2.0 | 4.0 | 0.00 | 0.00 | 0.00 | 50 | 1002.1 |
| 20260508070504 | 75 | 183 | 3.0 | 4.0 | 0.00 | 0.00 | 0.00 | 50 | 1002.1 |
| 20260508070004 | 76 | 182 | 3.0 | 4.0 | 0.00 | 0.00 | 0.00 | 50 | 1001.1 |
| 20260508065503 | 76 | 193 | 1.0 | 2.0 | 0.00 | 0.00 | 0.00 | 50 | 1001.1 |
| 20260508065003 | 75 | 179 | 0.0 | 3.0 | 0.00 | 0.00 | 0.00 | 50 | 1001.1 |
| 20260508064504 | 75 | 169 | 1.0 | 3.0 | 0.00 | 0.00 | 0.00 | 50 | 1002.1 |
| 20260508064004 | 75 | 214 | 0.0 | 4.0 | 0.00 | 0.00 | 0.00 | 50 | 1002.1 |
| 20260508063504 | 75 | 286 | 1.0 | 4.0 | 0.00 | 0.00 | 0.00 | 50 | 1002.1 |
| 20260508062504 | 74 | 289 | 2.0 | 3.0 | 0.00 | 0.00 | 0.00 | 50 | 1001.1 |
| 20260508062005 | 73 | 300 | 0.0 | 6.0 | 0.00 | 0.00 | 0.00 | 50 | 1001.1 |
| 20260508061504 | 73 | 314 | 2.0 | 7.0 | 0.00 | 0.00 | 0.00 | 50 | 1002.1 |
| 20260508061003 | 72 | 310 | 4.0 | 7.0 | 0.00 | 0.00 | 0.00 | 50 | 1002.1 |
| 20260508060504 | 72 | 174 | 1.0 | 5.0 | 0.00 | 0.00 | 0.00 | 50 | 1002.1 |
| 20260508060004 | 72 | 172 | 2.0 | 6.0 | 0.00 | 0.00 | 0.00 | 50 | 1002.1 |
| 20260508055504 | 72 | 170 | 4.0 | 6.0 | 0.00 | 0.00 | 0.00 | 50 | 1002.1 |
| 20260508055004 | 72 | 157 | 2.0 | 6.0 | 0.00 | 0.00 | 0.00 | 50 | 1002.1 |
| 20260508054504 | 71 | 162 | 1.0 | 6.0 | 0.00 | 0.00 | 0.00 | 50 | 1002.1 |
| 20260508053504 | 72 | 176 | 4.0 | 7.0 | 0.00 | 0.00 | 0.00 | 50 | 1002.1 |
| 20260508053004 | 72 | 178 | 5.0 | 7.0 | 0.00 | 0.00 | 0.00 | 50 | 1003.1 |
| 20260508052003 | 72 | 194 | 4.0 | 8.0 | 0.00 | 0.00 | 0.00 | 50 | 1003.1 |
| 20260508051504 | 73 | 197 | 4.0 | 6.0 | 0.00 | 0.00 | 0.00 | 50 | 1002.1 |
| 20260508051004 | 73 | 201 | 4.0 | 6.0 | 0.00 | 0.00 | 0.00 | 50 | 1002.1 |
| 20260508050504 | 74 | 203 | 2.0 | 6.0 | 0.00 | 0.00 | 0.00 | 50 | 1002.1 |
| 20260508050004 | 74 | 205 | 2.0 | 5.0 | 0.00 | 0.00 | 0.00 | 50 | 1002.1 |
| 20260508045504 | 74 | 210 | 0.0 | 6.0 | 0.00 | 0.00 | 0.00 | 50 | 1002.1 |
| 20260508045004 | 74 | 210 | 2.0 | 6.0 | 0.00 | 0.00 | 0.00 | 50 | 1002.1 |
| 20260508044504 | 73 | 205 | 3.0 | 6.0 | 0.00 | 0.00 | 0.00 | 50 | 1002.1 |
| 20260508044004 | 73 | 201 | 5.0 | 6.0 | 0.00 | 0.00 | 0.00 | 50 | 1002.1 |
| 20260508043504 | 73 | 189 | 4.0 | 6.0 | 0.00 | 0.00 | 0.00 | 50 | 1002.1 |
| 20260508043004 | 73 | 175 | 3.0 | 6.0 | 0.00 | 0.00 | 0.00 | 50 | 1003.1 |
| 20260508040504 | 73 | 193 | 8.0 | 10.0 | 0.00 | 0.00 | 0.00 | 50 | 1003.1 |
| 20260508040004 | 73 | 189 | 8.0 | 11.0 | 0.00 | 0.00 | 0.00 | 50 | 1003.1 |
| 20260508035503 | 73 | 186 | 7.0 | 11.0 | 0.00 | 0.00 | 0.00 | 50 | 1003.1 |
| 20260508035003 | 73 | 187 | 5.0 | 11.0 | 0.00 | 0.00 | 0.00 | 50 | 1003.1 |
| 20260508034504 | 73 | 181 | 6.0 | 9.0 | 0.00 | 0.00 | 0.00 | 50 | 1003.1 |
| 20260508034003 | 73 | 175 | 6.0 | 10.0 | 0.00 | 0.00 | 0.00 | 50 | 1003.1 |
| 20260508033503 | 74 | 183 | 6.0 | 10.0 | 0.00 | 0.00 | 0.00 | 50 | 1003.1 |
| 20260508033004 | 74 | 185 | 6.0 | 9.0 | 0.00 | 0.00 | 0.00 | 50 | 1003.1 |
| 20260508032504 | 74 | 186 | 6.0 | 9.0 | 0.00 | 0.00 | 0.00 | 50 | 1003.1 |
| 20260508032004 | 75 | 196 | 5.0 | 7.0 | 0.00 | 0.00 | 0.00 | 50 | 1003.1 |
| 20260508031004 | 75 | 203 | 4.0 | 6.0 | 0.00 | 0.00 | 0.00 | 50 | 1003.1 |
| 20260508030503 | 75 | 197 | 4.0 | 6.0 | 0.00 | 0.00 | 0.00 | 50 | 1003.1 |
| 20260508025504 | 75 | 199 | 6.0 | 9.0 | 0.00 | 0.00 | 0.00 | 50 | 1004.1 |
| 20260508025004 | 76 | 196 | 6.0 | 9.0 | 0.00 | 0.00 | 0.00 | 50 | 1004.1 |
| 20260508024504 | 76 | 190 | 5.0 | 7.0 | 0.00 | 0.00 | 0.00 | 50 | 1003.1 |
| 20260508024003 | 75 | 196 | 4.0 | 6.0 | 0.00 | 0.00 | 0.00 | 50 | 1003.1 |
| 20260508023503 | 75 | 195 | 3.0 | 5.0 | 0.00 | 0.00 | 0.00 | 50 | 1003.1 |
| 20260508023003 | 75 | 200 | 3.0 | 4.0 | 0.00 | 0.00 | 0.00 | 50 | 1003.1 |
| 20260508022503 | 75 | 202 | 2.0 | 4.0 | 0.00 | 0.00 | 0.00 | 50 | 1003.1 |
| 20260508022003 | 74 | 187 | 3.0 | 7.0 | 0.00 | 0.00 | 0.00 | 50 | 1003.1 |
| 20260508021503 | 73 | 190 | 4.0 | 8.0 | 0.00 | 0.00 | 0.00 | 50 | 1004.1 |
| 20260508021004 | 73 | 196 | 6.0 | 8.0 | 0.00 | 0.00 | 0.00 | 50 | 1004.1 |
| 20260508020504 | 73 | 192 | 4.0 | 8.0 | 0.00 | 0.00 | 0.00 | 50 | 1004.1 |
| 20260508020004 | 73 | 188 | 4.0 | 9.0 | 0.00 | 0.00 | 0.00 | 50 | 1003.1 |
| 20260508015504 | 73 | 192 | 6.0 | 9.0 | 0.00 | 0.00 | 0.00 | 50 | 1003.1 |
| 20260508015004 | 73 | 199 | 6.0 | 10.0 | 0.00 | 0.00 | 0.00 | 50 | 1003.1 |
| 20260508014504 | 74 | 198 | 9.0 | 10.0 | 0.00 | 0.00 | 0.00 | 50 | 1004.1 |
| 20260508013504 | 74 | 199 | 6.0 | 8.0 | 0.00 | 0.00 | 0.00 | 50 | 1004.1 |
| 20260508013004 | 74 | 202 | 6.0 | 8.0 | 0.00 | 0.00 | 0.00 | 50 | 1003.1 |
| 20260508012504 | 74 | 202 | 4.0 | 6.0 | 0.00 | 0.00 | 0.00 | 50 | 1003.1 |
| 20260508011505 | 74 | 195 | 4.0 | 9.0 | 0.00 | 0.00 | 0.00 | 50 | 1005.1 |
| 20260508011004 | 74 | 195 | 4.0 | 9.0 | 0.00 | 0.00 | 0.00 | 50 | 1005.1 |
| 20260508010503 | 74 | 199 | 4.0 | 10.0 | 0.00 | 0.00 | 0.00 | 50 | 1005.1 |
| 20260508005004 | 74 | 190 | 6.0 | 9.0 | 0.00 | 0.00 | 0.00 | 50 | 1005.1 |
| 20260508004004 | 75 | 188 | 4.0 | 7.0 | 0.00 | 0.00 | 0.00 | 50 | 1005.1 |
| 20260508003505 | 74 | 189 | 3.0 | 5.0 | 0.00 | 0.00 | 0.00 | 50 | 1005.1 |
| 20260508003004 | 74 | 203 | 1.0 | 4.0 | 0.00 | 0.00 | 0.00 | 50 | 1005.1 |
| 20260508002504 | 74 | 210 | 3.0 | 4.0 | 0.00 | 0.00 | 0.00 | 50 | 1005.1 |
| 20260508002005 | 74 | 209 | 1.0 | 4.0 | 0.00 | 0.00 | 0.00 | 50 | 1005.1 |
| 20260508001504 | 74 | 206 | 3.0 | 4.0 | 0.00 | 0.00 | 0.00 | 50 | 1005.1 |
| 20260508001004 | 74 | 212 | 1.0 | 6.0 | 0.00 | 0.00 | 0.00 | 50 | 1005.1 |
| 20260508000503 | 74 | 213 | 3.0 | 6.0 | 0.00 | 0.00 | 0.00 | 50 | 1005.1 |
| 20260508000004 | 75 | 235 | 3.0 | 6.0 | 0.00 | 0.00 | 0.00 | 50 | 1004.1 |
| 20260507235004 | 76 | 227 | 3.0 | 6.0 | 0.00 | 0.00 | 0.00 | 50 | 1004.1 |
| 20260507234004 | 76 | 224 | 4.0 | 6.0 | 0.00 | 0.00 | 0.00 | 50 | 1004.1 |
| 20260507233004 | 77 | 184 | 3.0 | 4.0 | 0.00 | 0.00 | 0.00 | 50 | 1003.1 |
| 20260507232504 | 77 | 133 | 2.0 | 3.0 | 0.00 | 0.00 | 0.00 | 50 | 1003.1 |
| 20260507232003 | 77 | 113 | 1.0 | 4.0 | 0.00 | 0.00 | 0.00 | 50 | 1003.1 |
| 20260507231503 | 77 | 118 | 2.0 | 4.0 | 0.00 | 0.00 | 0.00 | 50 | 1004.1 |
| 20260507231003 | 77 | 142 | 0.0 | 5.0 | 0.00 | 0.00 | 0.00 | 50 | 1004.1 |
| 20260507230004 | 77 | 111 | 2.0 | 3.0 | 0.00 | 0.00 | 0.00 | 50 | 1005.1 |
| 20260507225504 | 77 | 125 | 1.0 | 3.0 | 0.00 | 0.00 | 0.00 | 50 | 1005.1 |
| 20260507225004 | 78 | 96 | 2.0 | 4.0 | 0.00 | 0.00 | 0.00 | 50 | 1005.1 |
| 20260507224504 | 79 | 74 | 0.0 | 4.0 | 0.00 | 0.00 | 0.00 | 50 | 1005.1 |
| 20260507224003 | 80 | 61 | 4.0 | 4.0 | 0.00 | 0.00 | 0.00 | 50 | 1005.1 |
| 20260507223003 | 80 | 4 | 0.0 | 3.0 | 0.00 | 0.00 | 0.00 | 50 | 1005.1 |
| 20260507222503 | 79 | 25 | 1.0 | 4.0 | 0.00 | 0.00 | 0.00 | 50 | 1005.1 |
| 20260507222004 | 79 | 24 | 2.0 | 6.0 | 0.00 | 0.00 | 0.00 | 50 | 1005.1 |
| 20260507221003 | 78 | 5 | 4.0 | 6.0 | 0.00 | 0.00 | 0.00 | 50 | 1005.1 |
| 20260507220504 | 77 | 24 | 2.0 | 4.0 | 0.00 | 0.00 | 0.00 | 50 | 1005.1 |
| 20260507220004 | 76 | 30 | 2.0 | 4.0 | 0.00 | 0.00 | 0.00 | 50 | 1006.1 |
| 20260507215505 | 75 | 21 | 1.0 | 4.0 | 0.00 | 0.00 | 0.00 | 50 | 1006.1 |
| 20260507215004 | 74 | 22 | 4.0 | 5.0 | 0.00 | 0.00 | 0.00 | 50 | 1006.1 |
| 20260507214503 | 72 | 24 | 3.0 | 5.0 | 0.00 | 0.00 | 0.00 | 50 | 1006.1 |
| 20260507214004 | 72 | 32 | 2.0 | 5.0 | 0.00 | 0.00 | 0.00 | 50 | 1006.1 |
| 20260507213504 | 71 | 90 | 2.0 | 4.0 | 0.00 | 0.00 | 0.00 | 50 | 1006.1 |
| 20260507213004 | 70 | 138 | 1.0 | 3.0 | 0.00 | 0.00 | 0.00 | 50 | 1006.1 |
| 20260507212503 | 70 | 137 | 2.0 | 3.0 | 0.00 | 0.00 | 0.00 | 50 | 1006.1 |
| 20260507212004 | 70 | 38 | 1.0 | 1.0 | 0.00 | 0.00 | 0.00 | 50 | 1006.1 |
| 20260507211003 | 69 | 292 | 0.0 | 1.0 | 0.00 | 0.00 | 0.00 | 50 | 1006.1 |
| 20260507205504 | 68 | 0 | 0.0 | 0.0 | 0.00 | 0.00 | 0.00 | 50 | 1007.1 |
| 20260507205003 | 68 | 0 | 0.0 | 0.0 | 0.00 | 0.00 | 0.00 | 50 | 1007.1 |
| 20260507204504 | 67 | 292 | 0.0 | 1.0 | 0.00 | 0.00 | 0.00 | 50 | 1007.1 |
| 20260507204004 | 67 | 292 | 0.0 | 2.0 | 0.00 | 0.00 | 0.00 | 50 | 1007.1 |
| 20260507203503 | 67 | 292 | 0.0 | 2.0 | 0.00 | 0.00 | 0.00 | 50 | 1007.1 |
| 20260507202004 | 66 | 331 | 1.0 | 2.0 | 0.00 | 0.00 | 0.00 | 50 | 1008.1 |
| 20260507201504 | 66 | 331 | 1.0 | 2.0 | 0.00 | 0.00 | 0.00 | 50 | 1008.1 |
| 20260507201003 | 66 | 337 | 1.0 | 3.0 | 0.00 | 0.00 | 0.00 | 50 | 1008.1 |
| 20260507200503 | 66 | 336 | 2.0 | 3.0 | 0.00 | 0.00 | 0.00 | 50 | 1008.1 |
| 20260507200004 | 66 | 324 | 2.0 | 3.0 | 0.00 | 0.00 | 0.00 | 50 | 1008.1 |
| 20260507195504 | 66 | 306 | 2.0 | 3.0 | 0.00 | 0.00 | 0.00 | 50 | 1008.1 |
| 20260507195005 | 66 | 306 | 1.0 | 3.0 | 0.00 | 0.00 | 0.00 | 50 | 1008.1 |
| 20260507194504 | 66 | 305 | 2.0 | 3.0 | 0.00 | 0.00 | 0.00 | 50 | 1008.1 |
| 20260507194004 | 66 | 318 | 1.0 | 3.0 | 0.00 | 0.00 | 0.00 | 50 | 1008.1 |
| 20260507193505 | 66 | 333 | 2.0 | 3.0 | 0.00 | 0.00 | 0.00 | 50 | 1008.1 |
| 20260507193004 | 66 | 356 | 1.0 | 2.0 | 0.00 | 0.00 | 0.00 | 50 | 1008.1 |
| 20260507192504 | 66 | 1 | 0.0 | 1.0 | 0.00 | 0.00 | 0.00 | 50 | 1008.1 |
| 20260507192004 | 66 | 352 | 0.0 | 1.0 | 0.00 | 0.00 | 0.00 | 50 | 1008.1 |
| 20260507191004 | 65 | 337 | 0.0 | 3.0 | 0.00 | 0.00 | 0.00 | 50 | 1008.1 |
| 20260507185504 | 65 | 331 | 1.0 | 4.0 | 0.00 | 0.00 | 0.00 | 50 | 1008.1 |
| 20260507185004 | 66 | 331 | 2.0 | 3.0 | 0.00 | 0.00 | 0.00 | 50 | 1008.1 |
| 20260507184504 | 66 | 1 | 0.0 | 1.0 | 0.00 | 0.00 | 0.00 | 50 | 1007.1 |
| 20260507184004 | 66 | 0 | 0.0 | 0.0 | 0.00 | 0.00 | 0.00 | 50 | 1007.1 |
| 20260507183004 | 66 | 0 | 0.0 | 0.0 | 0.00 | 0.00 | 0.00 | 50 | 1008.1 |
| 20260507182504 | 66 | 0 | 0.0 | 0.0 | 0.00 | 0.00 | 0.00 | 50 | 1008.1 |
| 20260507182004 | 66 | 46 | 0.0 | 1.0 | 0.00 | 0.00 | 0.00 | 50 | 1008.1 |
| 20260507181504 | 66 | 46 | 0.0 | 1.0 | 0.00 | 0.00 | 0.00 | 50 | 1008.1 |
| 20260507181003 | 66 | 0 | 0.0 | 0.0 | 0.00 | 0.00 | 0.00 | 50 | 1008.1 |
| 20260507180504 | 66 | 0 | 0.0 | 0.0 | 0.00 | 0.00 | 0.00 | 50 | 1008.1 |
| 20260507175504 | 66 | 300 | 0.0 | 2.0 | 0.00 | 0.00 | 0.00 | 50 | 1008.1 |
| 20260507174504 | 66 | 336 | 1.0 | 4.0 | 0.00 | 0.00 | 0.00 | 50 | 1008.1 |
| 20260507174004 | 66 | 333 | 4.0 | 4.0 | 0.00 | 0.00 | 0.00 | 50 | 1008.1 |
| 20260507173504 | 66 | 314 | 1.0 | 2.0 | 0.00 | 0.00 | 0.00 | 50 | 1008.1 |
| 20260507173004 | 66 | 314 | 0.0 | 1.0 | 0.00 | 0.00 | 0.00 | 50 | 1008.1 |
| 20260507172504 | 66 | 314 | 0.0 | 3.0 | 0.00 | 0.00 | 0.00 | 50 | 1008.1 |
| 20260507172004 | 66 | 312 | 1.0 | 3.0 | 0.00 | 0.00 | 0.00 | 50 | 1008.1 |
| 20260507171504 | 66 | 313 | 2.0 | 3.0 | 0.00 | 0.00 | 0.00 | 50 | 1007.1 |
| 20260507171003 | 66 | 322 | 1.0 | 2.0 | 0.00 | 0.00 | 0.00 | 50 | 1007.1 |
| 20260507170005 | 66 | 349 | 0.0 | 1.0 | 0.00 | 0.00 | 0.00 | 50 | 1008.1 |
| 20260507165504 | 66 | 1 | 1.0 | 1.0 | 0.00 | 0.00 | 0.00 | 50 | 1008.1 |
| 20260507165004 | 66 | 10 | 0.0 | 1.0 | 0.00 | 0.00 | 0.00 | 50 | 1008.1 |
| 20260507164504 | 67 | 21 | 0.0 | 3.0 | 0.00 | 0.00 | 0.00 | 50 | 1008.1 |
| 20260507164005 | 67 | 16 | 1.0 | 3.0 | 0.00 | 0.00 | 0.00 | 50 | 1008.1 |
| 20260507163504 | 67 | 5 | 0.0 | 2.0 | 0.00 | 0.00 | 0.00 | 50 | 1008.1 |
| 20260507162503 | 67 | 304 | 0.0 | 1.0 | 0.00 | 0.00 | 0.00 | 50 | 1008.1 |
| 20260507162004 | 67 | 297 | 0.0 | 2.0 | 0.00 | 0.00 | 0.00 | 50 | 1008.1 |
| 20260507161504 | 67 | 303 | 0.0 | 3.0 | 0.00 | 0.00 | 0.00 | 50 | 1008.1 |